Location: Malanoce
(44.2500°N, 7.4667°E)
Time: 21:36:24
(UTC+00:00)

Tiangong - Visible Passes

Search period start: 16 January 2026 00:00
Search period end: 26 January 2026 00:00
Orbit: 378 x 394 km, 41.5° (Epoch: 16 January)

Date Brightness Start Highest point End Pass type
(mag) Time Alt. Az. Time Alt. Az. Time Alt. Az.
17 Jan 0.3 06:10:30 10° SSW 06:13:02 22° SSE 06:15:37 10° ESE visible
18 Jan 0.7 05:12:04 10° S 05:14:00 15° SSE 05:15:55 10° ESE visible
19 Jan -0.5 05:48:20 10° SW 05:51:12 31° SSE 05:54:06 10° E visible
20 Jan -0.1 04:51:56 22° SSE 04:52:03 22° SSE 04:54:37 10° ESE visible
20 Jan -1.3 06:25:28 10° WSW 06:28:34 48° S 06:31:41 10° E visible
21 Jan -1.1 05:27:53 24° SW 05:29:18 41° SSE 05:32:21 10° E visible
22 Jan 0.4 04:31:27 21° ESE 04:31:27 21° ESE 04:32:56 10° E visible
22 Jan -1.5 06:03:41 11° WSW 06:06:38 51° S 06:09:46 10° ESE visible
23 Jan -1.6 05:07:10 48° S 05:07:19 48° S 05:10:25 10° E visible
24 Jan 1.3 04:10:35 13° E 04:10:35 13° E 04:11:00 10° E visible
24 Jan -1.5 05:42:48 21° WSW 05:44:36 48° S 05:47:42 10° ESE visible
25 Jan -0.6 04:46:10 35° SE 04:46:10 35° SE 04:48:19 10° ESE visible
25 Jan -0.7 06:18:58 10° W 06:21:48 30° SSW 06:24:39 10° SE visible
